Stations météo

Publicité
Calvi, France (7754): Température de l'air & dewpoint: 20.11.2020 00:00:00 - 26.11.2020 00:00:00 (CET)Calvi, France (7754): Température de l'air 5cm: 20.11.2020 00:00:00 - 26.11.2020 00:00:00 (CET)Calvi, France (7754): Vitesse du vent & gusts: 20.11.2020 00:00:00 - 26.11.2020 00:00:00 (CET)Calvi, France (7754): Direction du vent: 20.11.2020 00:00:00 - 26.11.2020 00:00:00 (CET)Calvi, France (7754): reduced air pressure: 20.11.2020 00:00:00 - 26.11.2020 00:00:00 (CET)Calvi, France (7754): visibility: 20.11.2020 00:00:00 - 26.11.2020 00:00:00 (CET)Calvi, France (7754): Quantités de précipitations: 20.11.2020 00:00:00 - 26.11.2020 00:00:00 (CET)
Date & Time tt [°C] td [°C] tt 5cm [°C] ff [km/h] ff [knt] fx [km/h] fx [knt] dd ppp [hPa] vv [km] rr [mm]
26.11.2020 00:00:00 - - - - - - - - - - -
25.11.2020 23:00:00 6,6 5,1 5,5 6 4 14 8 S 1022,7 52 0,0
25.11.2020 22:00:00 6,8 5,3 5,7 7 4 13 7 S 1022,6 42 0,0
25.11.2020 21:00:00 8,2 6,0 6,0 12 6 16 9 SSW 1022,3 50 0,0
25.11.2020 20:00:00 8,4 6,2 6,6 9 5 13 7 SSW 1022,3 37 0,0
25.11.2020 19:00:00 8,3 5,9 7,3 7 4 15 8 SSW 1021,9 51 0,0
25.11.2020 18:00:00 9,0 6,6 8,3 10 5 16 8 S 1021,6 36 0,0
25.11.2020 17:00:00 10,3 7,2 9,5 9 5 12 6 S 1021,2 37 0,0
25.11.2020 16:00:00 15,2 8,4 16,0 2 1 11 6 NNW 1021,1 58 0,0
25.11.2020 15:00:00 15,7 7,7 15,5 7 4 11 6 N 1021,1 52 0,0
25.11.2020 14:00:00 15,3 7,3 15,6 7 4 11 6 N 1021,3 57 0,0
25.11.2020 13:00:00 15,3 7,1 15,7 6 3 11 6 N 1021,7 20 0,0
25.11.2020 12:00:00 15,9 6,9 17,5 5 3 9 5 N 1022,0 20 0,0
25.11.2020 11:00:00 16,8 7,2 15,4 0 0 6 3 N 1022,3 59 0,0
25.11.2020 10:00:00 13,8 8,4 9,1 0 0 6 3 N 1022,3 56 0,0
25.11.2020 09:00:00 8,6 6,6 4,8 5 3 11 6 S 1022,4 41 0,0
25.11.2020 08:00:00 5,2 3,8 4,1 8 4 12 6 S 1022,4 49 0,0
25.11.2020 07:00:00 5,0 3,7 - 8 4 12 7 S 1022,0 30 -
25.11.2020 06:00:00 6,0 5,0 - 6 4 - - S - 50 -
25.11.2020 05:00:00 5,0 4,0 - 9 5 - - S - 55 -
25.11.2020 04:00:00 6,0 4,0 - 8 4 - - SSW - 60 -
25.11.2020 03:00:00 6,0 4,0 - 8 5 - - SSW - 45 -
25.11.2020 02:00:00 6,0 4,0 - 6 4 - - SSW - 50 -
25.11.2020 01:00:00 5,8 4,3 4,3 6 4 13 7 S 1023,1 47 0,0
25.11.2020 00:00:00 5,9 4,7 4,4 7 4 12 7 S 1023,5 40 0,0
24.11.2020 23:00:00 5,5 4,5 4,5 6 4 14 8 S 1023,6 43 0,0
24.11.2020 22:00:00 5,7 4,2 4,6 5 3 10 5 S 1023,8 38 0,0
24.11.2020 21:00:00 6,6 5,1 5,7 6 3 16 8 S 1023,6 38 0,0
24.11.2020 20:00:00 6,9 5,5 5,9 7 4 12 6 S 1023,7 34 0,0
24.11.2020 19:00:00 7,0 5,5 6,2 6 3 16 9 S 1023,6 35 0,0
24.11.2020 18:00:00 8,1 6,1 7,4 11 6 15 8 SSW 1023,6 35 0,0
24.11.2020 17:00:00 10,1 6,8 9,0 5 3 11 6 S 1023,1 25 0,0
24.11.2020 16:00:00 14,2 7,9 14,9 5 3 13 7 NNW 1023,0 52 0,0
24.11.2020 15:00:00 14,7 7,7 16,3 6 4 16 9 NW 1023,3 43 0,0
24.11.2020 14:00:00 14,7 8,0 16,0 9 5 18 10 NNW 1023,6 54 0,0
24.11.2020 13:00:00 14,8 8,3 15,0 10 6 18 10 NNW 1024,2 20 0,0
24.11.2020 12:00:00 14,3 8,3 14,9 11 6 17 9 N 1024,9 54 0,0
24.11.2020 11:00:00 15,1 7,1 14,2 0 0 8 4 N 1025,6 55 0,0
24.11.2020 10:00:00 12,9 7,6 9,6 6 3 10 5 SSW 1025,6 31 0,0
24.11.2020 09:00:00 9,1 6,5 4,8 6 3 15 8 S 1025,7 44 0,0
24.11.2020 08:00:00 5,6 4,2 4,7 9 5 14 8 S 1025,5 56 0,0
24.11.2020 07:00:00 6,4 4,6 4,2 7 4 16 8 SSW 1025,5 56 0,0
24.11.2020 06:00:00 5,8 4,1 4,6 4 2 12 6 SSW 1025,3 57 0,0
24.11.2020 05:00:00 7,7 5,5 7,0 10 5 14 7 SSW 1025,2 58 0,0
24.11.2020 04:00:00 8,6 6,4 7,3 9 5 13 7 S 1025,4 60 0,0
24.11.2020 03:00:00 8,2 6,5 6,7 6 3 10 5 S 1025,9 57 0,0
24.11.2020 02:00:00 7,0 5,5 6,1 5 3 14 7 S 1026,2 58 0,0
24.11.2020 01:00:00 7,0 5,8 6,0 8 4 14 8 S 1026,3 49 0,0
24.11.2020 00:00:00 7,3 5,9 5,0 9 5 13 7 S 1026,8 51 0,0
23.11.2020 23:00:00 6,3 4,9 5,4 4 2 11 6 S 1026,8 40 0,0
23.11.2020 22:00:00 6,2 4,8 5,4 5 3 11 6 S 1026,9 34 0,0
23.11.2020 21:00:00 7,4 5,7 6,5 8 4 14 7 SSW 1026,8 52 0,0
23.11.2020 20:00:00 8,2 6,2 7,3 8 4 14 7 S 1026,7 48 0,0
23.11.2020 19:00:00 9,6 6,9 8,5 6 3 9 5 S 1026,6 53 0,0
23.11.2020 18:00:00 12,0 7,9 11,4 4 2 8 4 WSW 1026,4 59 0,0
23.11.2020 17:00:00 13,2 7,6 12,6 0 0 10 5 N 1026,1 39 0,0
23.11.2020 16:00:00 14,7 7,7 16,3 6 3 16 9 N 1025,9 19 0,0
23.11.2020 15:00:00 14,7 8,0 16,2 11 6 16 9 N 1025,8 57 0,0
23.11.2020 14:00:00 15,1 8,1 16,1 12 7 20 11 N 1026,1 54 0,0
23.11.2020 13:00:00 15,3 7,6 16,4 13 7 21 12 N 1026,5 43 0,0
23.11.2020 12:00:00 15,5 7,0 19,1 6 3 13 7 N 1027,0 49 0,0
23.11.2020 11:00:00 15,7 6,7 14,7 2 1 10 5 SSE 1027,9 44 0,0
23.11.2020 10:00:00 13,2 6,8 9,7 5 3 9 5 SSW 1028,0 56 0,0
23.11.2020 09:00:00 9,2 5,6 5,7 4 2 16 9 S 1028,2 58 0,0
23.11.2020 08:00:00 6,6 4,1 5,6 13 7 19 10 SSW 1027,8 60 0,0
23.11.2020 07:00:00 6,2 3,5 4,9 13 7 16 9 SSW 1027,7 60 0,0
23.11.2020 06:00:00 6,6 3,2 4,8 11 6 16 9 SSW 1027,6 60 0,0
23.11.2020 05:00:00 5,8 2,8 3,4 11 6 15 8 SSW 1027,9 60 0,0
23.11.2020 04:00:00 6,1 2,2 3,9 9 5 16 8 SSW 1027,9 60 0,0
23.11.2020 03:00:00 6,4 2,3 5,0 10 5 16 8 SSW 1028,2 60 0,0
23.11.2020 02:00:00 6,6 2,5 5,1 12 7 18 10 SSW 1028,1 60 0,0
23.11.2020 01:00:00 5,4 2,7 2,6 13 7 18 10 SSW 1028,2 60 0,0
23.11.2020 00:00:00 4,9 0,8 3,0 8 4 16 8 S 1028,5 60 0,0
22.11.2020 23:00:00 3,9 0,9 2,5 7 4 14 8 SSW 1028,6 60 0,0
22.11.2020 22:00:00 3,9 0,2 2,3 4 2 15 8 SSE 1028,6 60 0,0
22.11.2020 21:00:00 5,2 0,2 2,4 10 6 16 8 SSW 1028,2 60 0,0
22.11.2020 20:00:00 3,5 0,0 2,6 6 3 15 8 S 1027,8 60 0,0
22.11.2020 19:00:00 5,0 0,0 2,9 5 3 14 8 S 1027,1 52 0,0
22.11.2020 18:00:00 5,3 0,7 4,5 12 6 15 8 S 1026,9 44 0,0
22.11.2020 17:00:00 8,1 0,8 7,0 7 4 17 9 S 1026,4 25 0,0
22.11.2020 16:00:00 12,3 -0,3 12,5 8 4 33 18 NNW 1025,8 57 0,0
22.11.2020 15:00:00 13,1 -1,7 14,2 21 11 49 26 N 1025,3 42 0,0
22.11.2020 14:00:00 13,6 -3,7 14,2 34 18 58 32 NNE 1025,4 35 0,0
22.11.2020 13:00:00 14,1 -4,2 14,4 39 21 61 33 NNE 1025,1 36 0,0
22.11.2020 12:00:00 14,6 -6,9 15,4 41 22 67 36 NNE 1025,2 49 0,0
22.11.2020 11:00:00 14,6 -8,2 14,5 29 15 42 23 NNE 1026,8 60 0,0
22.11.2020 10:00:00 14,2 -9,1 12,1 22 12 44 24 N 1026,7 60 0,0
22.11.2020 09:00:00 13,0 -10,1 3,9 17 9 36 19 N 1026,6 48 0,0
22.11.2020 08:00:00 6,5 -7,9 4,3 5 3 40 22 S 1026,7 60 0,0
22.11.2020 07:00:00 11,0 -12,5 4,4 24 13 50 27 NNE 1025,9 60 0,0
22.11.2020 06:00:00 12,3 -13,7 10,2 31 17 56 30 NNE 1025,9 60 0,0
22.11.2020 05:00:00 11,5 -13,5 7,2 16 9 58 32 NE 1025,5 60 0,0
22.11.2020 04:00:00 12,7 -12,5 9,2 31 17 57 31 N 1024,6 60 0,0
22.11.2020 03:00:00 12,3 -11,4 10,8 31 17 55 30 N 1025,1 60 0,0
22.11.2020 02:00:00 13,7 -14,3 10,9 31 17 59 32 NNE 1025,0 60 0,0
22.11.2020 01:00:00 13,1 -10,7 9,7 35 19 67 36 NNE 1025,3 60 0,0
22.11.2020 00:00:00 11,2 -5,3 9,8 27 15 58 31 N 1026,2 60 0,0
21.11.2020 23:00:00 11,0 -4,7 9,8 26 14 50 27 N 1026,5 60 0,0
21.11.2020 22:00:00 11,1 -6,3 9,9 23 13 64 35 N 1027,1 60 0,0
21.11.2020 21:00:00 11,4 -5,6 10,0 29 16 62 33 N 1026,5 60 0,0
21.11.2020 20:00:00 12,0 -5,5 9,9 29 16 55 30 NNE 1026,4 60 0,0
21.11.2020 19:00:00 11,4 -4,7 9,9 26 14 56 30 NNE 1026,5 60 0,0
21.11.2020 18:00:00 10,9 -1,9 9,7 31 17 53 29 NNE 1026,4 60 0,0
21.11.2020 17:00:00 11,1 -1,0 10,2 28 15 59 32 NNE 1026,7 60 0,0
21.11.2020 16:00:00 12,0 -1,9 11,6 34 19 61 33 NNE 1026,1 55 0,0
21.11.2020 15:00:00 13,5 -3,3 14,3 34 18 69 38 N 1025,2 45 0,0
21.11.2020 14:00:00 14,5 -6,4 13,7 19 11 65 35 NNE 1025,4 52 0,0
21.11.2020 13:00:00 13,5 -3,3 13,8 35 19 74 40 N 1025,3 33 0,0
21.11.2020 12:00:00 14,0 -5,2 14,3 41 22 70 38 NNE 1025,2 36 0,0
21.11.2020 11:00:00 13,4 -3,9 12,8 27 14 67 36 NE 1026,3 45 0,0
21.11.2020 10:00:00 12,5 -4,2 10,9 30 16 56 30 NE 1026,0 55 0,0
21.11.2020 09:00:00 11,3 -1,2 9,4 24 13 60 33 NE 1026,0 60 0,0
21.11.2020 08:00:00 11,0 -2,1 9,8 26 14 52 28 ENE 1025,9 60 0,0
21.11.2020 07:00:00 11,3 -1,8 9,9 23 13 47 26 NE 1025,5 60 0,0
21.11.2020 06:00:00 11,5 -2,3 9,9 23 12 43 23 NE 1024,7 60 0,0
21.11.2020 05:00:00 11,6 -1,6 10,2 21 11 45 25 NE 1023,9 60 0,0
21.11.2020 04:00:00 12,9 -0,4 10,3 22 12 47 26 NE 1022,7 60 0,0
21.11.2020 03:00:00 12,9 -1,1 10,9 23 12 58 31 NE 1022,7 60 0,0
21.11.2020 02:00:00 12,8 0,8 11,4 25 14 56 31 NE 1022,6 60 0,0
21.11.2020 01:00:00 13,0 1,9 11,3 30 16 54 29 NE 1022,5 60 0,0
21.11.2020 00:00:00 12,8 2,3 11,2 24 13 58 31 NNE 1022,2 60 0,0
20.11.2020 23:00:00 13,0 2,8 11,5 26 14 46 25 NNE 1021,7 60 0,0
20.11.2020 22:00:00 12,9 3,8 11,3 19 11 33 18 NNE 1021,2 60 0,0
20.11.2020 21:00:00 13,0 3,6 10,8 19 10 45 24 NNE 1020,5 60 0,0
20.11.2020 20:00:00 12,2 4,4 10,6 16 9 37 20 NNE 1020,3 60 0,0
20.11.2020 19:00:00 12,7 4,4 11,0 24 13 42 23 NE 1019,7 60 0,0
20.11.2020 18:00:00 12,4 6,4 9,5 19 11 34 18 NE 1019,2 60 0,0
20.11.2020 17:00:00 12,0 7,1 9,4 21 12 36 19 NE 1018,8 60 0,0
20.11.2020 16:00:00 10,9 7,8 9,0 16 9 39 21 NE 1018,5 57 -
20.11.2020 15:00:00 10,5 7,4 9,1 16 9 36 19 NE 1019,0 7 2,8
20.11.2020 14:00:00 9,9 8,5 9,0 19 10 42 23 NE 1019,1 4,2 6,7
20.11.2020 13:00:00 10,1 7,9 9,1 28 15 58 31 NE 1018,8 4,6 3,6
20.11.2020 12:00:00 10,1 8,7 9,1 18 10 48 26 NNE 1018,6 3,5 3,5
20.11.2020 11:00:00 10,6 8,4 9,5 29 16 57 31 NNE 1018,9 6 2,4
20.11.2020 10:00:00 11,2 8,9 9,9 28 15 54 29 NNE 1018,1 6 1,2
20.11.2020 09:00:00 12,6 8,3 10,6 27 15 48 26 NNE 1017,6 57 0,2
20.11.2020 08:00:00 12,4 8,7 10,2 23 12 39 21 NNE 1017,0 13 0,0
20.11.2020 07:00:00 12,2 8,5 10,4 13 7 37 20 NNE 1016,3 60 0,2
20.11.2020 06:00:00 12,0 9,9 10,5 8 4 24 13 NNE 1015,6 19 -
20.11.2020 05:00:00 12,3 9,7 10,5 7 4 18 10 SW 1014,5 3,5 2,0
20.11.2020 04:00:00 14,5 7,5 13,8 8 4 20 11 SW 1014,7 20 0,0
20.11.2020 03:00:00 15,3 7,1 14,8 17 9 42 23 WSW 1015,0 59 0,0
20.11.2020 02:00:00 15,4 7,9 14,8 16 8 43 23 SW 1015,0 60 0,0
20.11.2020 01:00:00 16,2 10,1 15,3 16 9 34 19 SW 1015,4 60 0,0
20.11.2020 00:00:00 17,0 10,6 15,9 11 6 33 18 SSW 1016,0 60 0,0

tt = Température de l'air
td = dewpoint
tt 5cm = Température de l'air 5cm
ff = Vitesse du vent
fx = gusts
dd = Direction du vent
ppp = reduced air pressure
vv = visibility
rr = Quantités de précipitations

stations d'obs. à proximité